Regional Weather Roundup
Issued by NWS Charleston, SC

Current Version | Previous Version | Graphics & Text | Print | Product List | Glossary On
Versions: 1 2 3 4 5 6 7 8 9 10 11 12 13 14 15 16 17 18 19 20 21 22 23 24 25 26 27 28 29 30 31 32 33 34 35 36 37 38 39 40 41 42 43 44 45 46 47 48 49 50
814
ASUS42 KCHS 261213
RWRCHS

REGIONAL WEATHER ROUNDUP
NATIONAL WEATHER SERVICE CHARLESTON SC
800 AM EDT MON SEP 26 2016

NOTE: "FAIR" INDICATES FEW OR NO CLOUDS BELOW 12,000 FEET WITH NO
SIGNIFICANT WEATHER AND/OR OBSTRUCTIONS TO VISIBILITY.

NOT ALL STATIONS ARE QUALITY CONTROLLED. USE DATA WITH CAUTION...
ESPECIALLY DEWPOINT OBSERVATIONS.

SCZ027-030-031-034>040-042>050-261300-
...SOUTHEAST SOUTH CAROLINA...

CITY           SKY/WX    TMP DP  RH WIND       PRES   REMARKS
N CHARLESTON   CLOUDY    75  71  87 NE3       30.07R
6HR MIN TEMP:  73; 6HR MAX TEMP:  76;

WATERFRONT PRK   N/A     77  75  93 NE6       30.03R
MOUNT PLEASANT FAIR      73  72  94 CALM      30.07R FOG
JOHNS ISLAND   FAIR      79  75  89 E7        30.06R
PINOPOLIS        N/A     73  72  94 NE7       29.99R
MONCKS CORNER  FAIR      70  70 100 CALM      30.08R FOG
SUMMERVILLE    FAIR      72  72 100 CALM      30.08R
BEAUFORT MCAS  CLOUDY    76  73  91 NE7       30.05R
6HR MIN TEMP:  74; 6HR MAX TEMP:  77; 6HR PCP: TRACE;

BEAUFORT ARPT  FAIR      77  73  88 E5        30.04S FOG
HILTON HEAD IS MOCLDY    79  73  83 E6        30.05R
WALTERBORO     CLOUDY    73 N/A N/A NE3       30.08R
ALLENDALE      FAIR      72  72 100 CALM      30.06R FOG

...SOUTHERN MIDLANDS AND PEE DEE...

CITY           SKY/WX    TMP DP  RH WIND       PRES   REMARKS
GEORGETOWN     FAIR      70  70 100 CALM      30.09R
KINGSTREE      FAIR      68  64  88 CALM      30.09R
ORANGEBURG     FOG       71  71 100 NE6       30.09R VSB 1
6HR MIN TEMP:  71; 6HR MAX TEMP:  73;

BARNWELL       NOT AVBL
AIKEN          CLOUDY    70  70 100 NE5       30.13R FOG
MANNING        FAIR      68  68 100 CALM      30.09R FOG
COLUMBIA       CLOUDY    74  71  91 E5        30.10R FOG
6HR MIN TEMP:  73; 6HR MAX TEMP:  74;

SUMTER         PTCLDY    68  67  94 NE3       30.08R
6HR MIN TEMP:  68; 6HR MAX TEMP:  73;

FLORENCE       MOCLDY    68  65  90 NE5       30.11R
6HR MIN TEMP:  68; 6HR MAX TEMP:  72;

MYRTLE BEACH   NOT AVBL
N MYRTLE BEACH PTSUNNY   68  65  90 NE7       30.09R
6HR MIN TEMP:  67; 6HR MAX TEMP:  71;


$$

GAZ063-065-086>088-099>101-113>116-118-119-134>141-150-261300-
...SOUTHEAST GEORGIA...

CITY           SKY/WX    TMP DP  RH WIND       PRES   REMARKS
SAVANNAH ARPT  CLOUDY    75  72  90 NE7       30.04R
6HR MIN TEMP:  74; 6HR MAX TEMP:  75;

HUNTER AAF     CLOUDY    76  76 100 N2        30.02R
6HR MIN TEMP:  74; 6HR MAX TEMP:  78; 6HR PCP: TRACE;

FORT STEWART   MOCLDY    73  72  94 N6        30.01F FOG
6HR MIN TEMP:  72; 6HR MAX TEMP:  73;

STATESBORO     CLOUDY    73  73 100 CALM      30.07R FOG
SYLVANIA       NOT AVBL
CLAXTON        FAIR      71  71 100 CALM      30.05S FOG

...CSRA...CENTRAL AND FAR SOUTHEAST GEORGIA...

CITY           SKY/WX    TMP DP  RH WIND       PRES   REMARKS
THOMSON        CLOUDY    71  71 100 CALM      30.14R
AUGUSTA-BUSH   PTCLDY    69  68  96 NW3       30.08R FOG
6HR MIN TEMP:  66; 6HR MAX TEMP:  70;

AUGUSTA-DANIEL MOCLDY    73  69  87 N5        30.10R FOG
SWAINSBORO     FOG       70  70 100 E3        30.08R VSB 1/2
VIDALIA        FOG       72  72 100 CALM      30.07R VSB 1/4
EASTMAN        FOG       71  71 100 CALM      30.10R VSB 1/4
HAZLEHURST     FOG       73  73 100 S3        30.05R VSB 1/4
ALMA           FOG       71  71 100 VRB3      30.04R VSB 1/4
6HR MIN TEMP:  70; 6HR MAX TEMP:  72;

WAYCROSS       PTCLDY    74  74 100 NE3       30.04R FOG
JESUP          CLOUDY    73  73 100 NE3       30.04R FOG
BAXLEY         FOG       73  73 100 NE3       30.04R VSB 3/4
BRUNSWICK      LGT RAIN  75  75 100 NE5       30.02F
SAINT SIMONS   LGT RAIN  75  71  87 N7        30.01R
6HR MIN TEMP:  74; 6HR MAX TEMP:  81; 6HR PCP: TRACE;


$$

SCZ027-028-034-036>038-045-046-048>050-GAZ119-141-261300-
...LAKE AND SUPPLEMENTAL COASTAL OBSERVATIONS...

STATION/POSITION TIME  TEMP    WIND        PRES    WAVE   SWELL
                       AIR SEA DIR/SP/G            HT/PER HT/PER/DIR
                 (UTC) (F)     (DEG/KT/KT) (MB)    (FT/S) (FT/S/D)
WINYAH BAY       1045   79      70/ 10     1017.0
LAKE MURRAY      1120   74      40/  1/  3 1018.3
ACE BASIN NERRS  1045   75        CALM     1017.0
FORT PULASKI     1148   79 81   70/ 14/ 16 1017.5R
SAPELO ISLAND    1100   77      40/  4     1016.0

$$

ANZ835-935-AMZ111-154-330-350-352-354-370-450-454-472-261300-
...C-MAN AND BUOY OBSERVATIONS...

STATION/POSITION TIME  TEMP    WIND        PRES    WAVE   SWELL
                       AIR SEA DIR/SP/G            HT/PER HT/PER/DIR
                 (UTC) (F)     (DEG/KT/KT) (MB)    (FT/S) (FT/S/D)
BUOY 41004       1150   80 82   80/ 10/ 14 1017.0R   4/ 6   3/ 80/ 6
BUOY 41008       1150   77 82  110/ 14/ 17 1016.5R   3/ 6   2/100/10
FOLLY BEACH CMAN 1100   80      80/ 13/ 15 1017.2R
CAPERS NEARSHORE 1108   79 81  100/  8/ 14 1017.3R
FRIPP NEARSHORE  1108   79 81  110/ 12/ 16 1017.2R


STATION/POSITION TIME  TEMP    WIND        PRES    WAVE   SWELL
                       AIR SEA DIR/SP/G            HT/PER HT/PER/DIR
                 (UTC) (F)     (DEG/KT/KT) (MB)    (FT/S) (FT/S/D)
5E ST. MARYS GA  1101      82                N/A     4/ 5   2/110/11
FRYING PAN BUOY  1150   80 82   60/ 14/ 17 1017.8R   4/ 5   2/120/ 9
BUOY 41025       1150   74 84   40/ 14/ 17 1019.2R   3/ 8   2/ 70/ 8
CAPE LOOKOUT NC  1200   74      40/ 12/ 15 1019.3R
BUOY 41002       1150   81 84   50/ 10/ 12 1017.1R   4/ 8   3/ 40/ 8
BUOY 41010       NOT AVBL
ST AUGUSTINE FL  1200   75 83  270/  7/  8 1016.4R


$$




USA.gov is the U.S. government's official web portal to all federal, state and local government web resources and services.